362  
ASUS45 KGGW 252215  
RWRGGW  
HOURLY REGIONAL WEATHER ROUNDUP FOR NORTHEAST MONTANA  
NATIONAL WEATHER SERVICE GLASGOW MONTANA  
300 PM MST SAT JAN 25 2020  
 
NOTE: "FAIR" INDICATES FEW OR NO CLOUDS BELOW 12,000 FEET WITH NO  
SIGNIFICANT WEATHER AND/OR S TO VISISBILITY.  
 
NORTHEAST MONTANA  
 
 
CITY SKY/WX TMP DP RH WIND PRES REMARKS
 
GLASGOW CLOUDY 42 28 57 W18G25 29.78S  
PLENTYWOOD N/A 37 32 82 W8G20 N/A  
WOLF POINT CLOUDY 41 32 70 W14 29.78F  
JORDAN N/A 44 28 53 W14 29.84S  
WINNETT N/A 48 21 34 NW14 N/A  
SIDNEY LGT RAIN 39 36 87 SW8 29.81S  
GLENDIVE LGT RAIN 41 34 76 W16 29.85R  
MALTA N/A 44 30 57 W16G26 N/A  
 
FORT PECK REPORTS  
 
 
CITY SKY/WX TMP DP RH WIND PRES REMARKS
 
FORT PECK N/A 46 32 58 W20 N/A  
THE PINES N/A 50 28 42 SW10 N/A  
 
SOUTHEAST MONTANA  
 
 
CITY SKY/WX TMP DP RH WIND PRES REMARKS
 
BILLINGS MOSUNNY 50 15 24 NW15 29.91F  
MILES CITY MOSUNNY 48 26 42 W17 29.88S  
BAKER MOSUNNY 45 27 49 W13 29.86S  
LIVINGSTON CLOUDY 45 14 28 W21G29 29.95R  
 
CENTRAL MONTANA  
 
 
CITY SKY/WX TMP DP RH WIND PRES REMARKS
 
HAVRE MOSUNNY 44 30 57 W17 29.87R  
LEWISTOWN CLOUDY 44 19 36 NW20 29.90R  
GREAT FALLS MOSUNNY 48 17 29 W23G31 29.91R  
CUT BANK SUNNY 43 19 38 W22 29.90R  
HELENA CLOUDY 44 24 45 NE3 29.97S  
BUTTE LGT SNOW 35 26 69 NW5 30.01R  
BOZEMAN CLOUDY 42 22 44 SW9 29.98S  
 
WESTERN MONTANA  
 
 
CITY SKY/WX TMP DP RH WIND PRES REMARKS
 
MISSOULA CLOUDY 32 32 100 CALM 30.04R  
KALISPELL NOT AVBL  
 
NORTH DAKOTA  
 
 
CITY SKY/WX TMP DP RH WIND PRES REMARKS
 
WILLISTON MOCLDY 37 30 75 W18 29.77S  
DICKINSON SUNNY 44 29 55 W15 29.80R  
MINOT MOSUNNY 35 32 88 E3 29.77F  
BISMARCK PTSUNNY 28 24 85 SE3 29.85S  
 
SOUTHERN SASKATCHEWAN  
 
 
CITY SKY/WX TMP DP RH WIND PRES REMARKS
 
REGINA CLOUDY 32 28 86 W9 29.71R FOG  
ESTEVAN PTSUNNY 36 30 80 SW6 29.74S  
SWIFT CURRENT LGT SNOW 27 27 100 W24 29.71R VSB 1  
 
 
 
CLICK HERE TO GO TO PREVIOUS BULLETINS.

The Nexlab MT Page Main Text Page